CZ-6A DEB

Satellite information

Favourite Embed

Satellite Type and Status

DEBRISIN ORBIT

Key statistics

Satellite CZ-6A DEB at a glance.

Uptime

390

Days in orbit

Revolutions

≈ 14.4

Per day

Orbit

LEO

Low Earth Orbit

Inclination

88.7

Latest

Satellite identification and parameters

Extended collection of information and parameters for CZ-6A DEB.

Object identification

Identified? True

Debris? True

Object name: CZ-6A DEB

International designator: 2024-140ACH

Object number (NORAD): 61817

Object ID (CCSDS): 61817

Country: PEOPLES REPUBLIC OF CHINA (PRC)

Current information (Y/N): Y

RCS size: SMALL

Orbital parameters

Period: 100.005 minutes

Inclination: 88.7245 deg

SMA: 7136.894 km

Apoapsis: 793.532 km

Periapsis: 723.986 km

RAAN: 292.9389 deg

Eccentricy: 0.0048723

Argument of periapsis: 236.7536 deg

Mean anomaly: 122.8992 deg

Mean motion: 14.39921815 rev/day

Mean motion (dot): 0.00004281 rev/day2

B* drag term: 0.0013384212 1/REarth

Two-line elements (TLE)

Creation date: Aug. 31, 2025, 2:26 a.m.

Reference frame: TEME

Reference center: EARTH

Epoch: Aug. 30, 2025, 9:16 p.m. UTC

TLE line 0: 0 CZ-6A DEB

TLE line 1: 1 61817U 24140ACH 25242.88614340 .00004281 00000-0 13384-2 0 9999

TLE line 2: 2 61817 88.7245 292.9389 0048723 236.7536 122.8992 14.39921815 51852

Live tracking on map

Real-time ground track for satellite CZ-6A DEB.

In-orbit conjunctions

A list of the most updated potential collisions computed for object CZ-6A DEB.

Target Orbit TCA Probability of collision Miss distance Type
SL-8 R/B LEO 2025-08-23 20:01:44 0.001443897 194.0 (m) ROCKET BODY
IRIDIUM 24 LEO 2025-04-02 09:55:38 0.0001083526 976.0 (m) PAYLOAD
IRIDIUM 911 LEO 2025-03-15 07:55:50 0.0003487983 848.0 (m) PAYLOAD
CZ-6A DEB LEO 2025-01-26 01:19:45 0.0003126076 741.0 (m) DEBRIS
DMSP 5D-2 F11 DEB SSO 2024-11-21 06:45:13 0.0001085276 503.0 (m) DEBRIS

Associated space launch

18 Low Earth Orbit communication satellites with Ku, Q and V band payloads for the G60 constellation operated by Shanghai Spacecom Satellite Technology (SSST) with funding backed by the Shanghai local government. Initial constellation will consist of 1296 satellites by 2027 with long term plans to expand it to 12000 satellites.

CZ-6A DEB was lifted into orbit during the mission ‘Long March 6A | G60 Polar Group 01’, on board a Long March 6A space rocket.

The launch took place on Aug. 6, 2024, 6:42 a.m. from Launch Complex 9A.

For more information about the launch, click the button.

Launch to space Long March 6A | G60 Polar Group 01
Long March 6A | G60 Polar Group 01

Agency: N/A

Status: Launch Successful

Launch date: Aug. 6, 2024, 6:42 a.m. UTC

Rocket: Long March 6A

Launch pad: Launch Complex 9A

Location: Taiyuan Satellite Launch Center, People's Republic of China

...

Latest news about this satellite

News about space launch
Brightness of first Chinese broadband constellation satellites alarms astronomers

The first satellites of a Chinese broadband constellation are significantly brighter than those of Western systems, posing a new challenge for astronomers.

News about space launch
Chinese rocket stage breaks up into cloud of more than 700 pieces of space debris

HELSINKI — A Chinese Long March 6A rocket’s upper stage has fragmented into a cloud of over 700 pieces of space debris, adding to concerns about long-term orbital safety. China […]

News about space launch
China's Thousand Sails Megaconstellation Kicks Off with Dangerous Debris Field

China's Thousand Sails Megaconstellation Kicks Off with Dangerous Debris Field


Newsletter sign-up

Weekly statistics, charts and insights to help you stay on top of the space industry.